Location: UBC Liquid-Mirror Observatory
(49.2876°N, 122.5728°W)
Time: 16:57:53
(UTC-07:00)

KITSAT 1 - Visible Passes

Search period start: 18 April 2014 00:00
Search period end: 28 April 2014 00:00
Orbit: 1306 x 1325 km, 66.1° (Epoch: 16 April)

Date Brightness Start Highest point End Pass type
(mag) Time Alt. Az. Time Alt. Az. Time Alt. Az.
18 Apr 11.6 02:43:23 18° SE 02:47:16 26° ESE 02:53:38 10° NE visible
18 Apr 10.3 04:35:22 18° SW 04:41:46 86° NW 04:49:58 10° NE visible
19 Apr 11.2 02:59:09 25° SSE 03:02:58 37° ESE 03:10:13 10° NE visible
19 Apr 10.4 04:51:07 16° SW 04:57:58 67° NW 05:06:06 10° NE visible
20 Apr 12.3 01:24:01 10° ESE 01:25:19 10° E 01:26:37 10° E visible
20 Apr 10.7 03:14:51 30° S 03:18:48 52° ESE 03:26:36 10° NE visible
20 Apr 10.7 05:06:50 12° WSW 05:14:18 52° NW 05:22:14 10° NE visible
21 Apr 11.9 01:38:33 15° ESE 01:40:47 17° E 01:45:34 10° ENE visible
21 Apr 10.3 03:30:31 31° SSW 03:34:45 71° ESE 03:42:51 10° NE visible
21 Apr 11.0 05:23:08 10° WSW 05:30:45 42° NW 05:38:24 10° NE visible
22 Apr 11.5 01:54:11 23° SE 01:56:21 26° ESE 02:02:38 10° NE visible
22 Apr 10.2 03:46:09 29° SW 03:50:50 88° NW 03:59:01 10° NE visible
23 Apr 11.0 02:09:46 31° SE 02:12:04 36° ESE 02:19:15 10° NE visible
23 Apr 10.4 04:01:44 24° SW 04:07:01 68° NW 04:15:10 10° NE visible
24 Apr 10.6 02:25:18 39° SSE 02:27:53 51° ESE 02:35:39 10° NE visible
24 Apr 10.7 04:17:16 18° WSW 04:23:21 53° NW 04:31:18 10° NE visible
25 Apr 11.8 00:48:51 16° ESE 00:49:53 17° E 00:54:31 10° ENE visible
25 Apr 10.3 02:40:49 42° S 02:43:50 69° ESE 02:51:54 10° NE visible
25 Apr 11.0 04:32:46 13° WSW 04:39:47 43° NW 04:47:28 10° NE visible
26 Apr 11.4 01:04:19 24° ESE 01:05:27 25° ESE 01:11:39 10° NE visible
26 Apr 10.2 02:56:17 38° SW 02:59:53 89° NW 03:08:05 10° NE visible
26 Apr 11.3 04:49:02 10° W 04:56:20 35° NNW 05:03:41 10° NE visible
27 Apr 10.9 01:19:45 33° SE 01:21:09 35° ESE 01:28:17 10° NE visible
27 Apr 10.4 03:11:42 31° SW 03:16:05 70° NW 03:24:13 10° NE visible
27 Apr 11.6 05:06:02 10° W 05:13:00 30° NNW 05:19:59 10° NE visible
